Time,TemperatureF,DewpointF,PressureIn,WindDirection,WindDirectionDegrees,WindSpeedMPH,WindSpeedGustMPH,Humidity,HourlyPrecipIn,Conditions,Clouds,dailyrainin,SoftwareType,DateUTC
2013-02-14 09:32:00,32.0,30.0,-100.00,NNW,340,9.0,18.0,93,-99.99,,,-99.99,,2013-02-14 15:32:00,
2013-02-14 09:42:00,31.0,29.0,-100.00,NNW,335,11.0,19.0,92,-99.99,,,-99.99,,2013-02-14 15:42:00,
2013-02-14 09:52:00,31.0,29.0,-100.00,NNW,335,11.0,19.0,92,-99.99,,,-99.99,,2013-02-14 15:52:00,
2013-02-14 10:02:00,31.0,29.0,-100.00,NNW,335,11.0,19.0,92,-99.99,,,-99.99,,2013-02-14 16:02:00,
2013-02-14 10:11:00,31.0,29.0,-100.00,NNW,335,11.0,19.0,92,-99.99,,,-99.99,,2013-02-14 16:11:00,
2013-02-14 10:32:00,30.0,26.0,-100.00,NNW,330,9.0,22.0,86,-99.99,,,-99.99,,2013-02-14 16:32:00,
2013-02-14 10:42:00,30.0,26.0,-100.00,NNW,330,9.0,22.0,86,-99.99,,,-99.99,,2013-02-14 16:42:00,
2013-02-14 10:52:00,30.0,26.0,-100.00,NNW,330,9.0,22.0,86,-99.99,,,-99.99,,2013-02-14 16:52:00,
2013-02-14 11:01:00,30.0,26.0,-100.00,NNW,330,9.0,22.0,86,-99.99,,,-99.99,,2013-02-14 17:01:00,
2013-02-14 11:11:00,30.0,26.0,-100.00,NNW,330,9.0,22.0,86,-99.99,,,-99.99,,2013-02-14 17:11:00,
2013-02-14 11:32:00,31.0,26.0,-100.00,NW,315,9.0,19.0,82,-99.99,,,-99.99,,2013-02-14 17:32:00,
2013-02-14 11:42:00,31.0,26.0,-100.00,NW,315,9.0,19.0,82,-99.99,,,-99.99,,2013-02-14 17:42:00,
2013-02-14 11:52:00,31.0,26.0,-100.00,NW,315,9.0,19.0,82,-99.99,,,-99.99,,2013-02-14 17:52:00,
2013-02-14 12:01:00,31.0,26.0,-100.00,NW,315,9.0,19.0,82,-99.99,,,-99.99,,2013-02-14 18:01:00,
2013-02-14 12:32:00,31.0,23.0,-100.00,NNW,340,12.0,19.0,73,-99.99,,,-99.99,,2013-02-14 18:32:00,
2013-02-14 12:42:00,31.0,23.0,-100.00,NNW,340,12.0,19.0,73,-99.99,,,-99.99,,2013-02-14 18:42:00,
2013-02-14 12:52:00,31.0,23.0,-100.00,NNW,340,12.0,19.0,73,-99.99,,,-99.99,,2013-02-14 18:52:00,
2013-02-14 13:02:00,31.0,23.0,-100.00,NNW,340,12.0,19.0,73,-99.99,,,-99.99,,2013-02-14 19:02:00,
2013-02-14 13:11:00,31.0,23.0,-100.00,NNW,340,12.0,19.0,73,-99.99,,,-99.99,,2013-02-14 19:11:00,
2013-02-14 13:32:00,31.0,22.0,-100.00,NW,325,8.0,21.0,70,-99.99,,,-99.99,,2013-02-14 19:32:00,
2013-02-14 13:42:00,31.0,22.0,-100.00,NW,325,8.0,21.0,70,-99.99,,,-99.99,,2013-02-14 19:42:00,
2013-02-14 13:52:00,31.0,22.0,-100.00,NW,325,8.0,21.0,70,-99.99,,,-99.99,,2013-02-14 19:52:00,
2013-02-14 14:01:00,31.0,22.0,-100.00,NW,325,8.0,21.0,70,-99.99,,,-99.99,,2013-02-14 20:01:00,
2013-02-14 14:11:00,31.0,22.0,-100.00,NW,325,8.0,21.0,70,-99.99,,,-99.99,,2013-02-14 20:11:00,
2013-02-14 16:32:00,32.0,21.0,-100.00,NNW,330,6.0,14.0,64,-99.99,,,-99.99,,2013-02-14 22:32:00,
2013-02-14 16:42:00,32.0,21.0,-100.00,NNW,330,6.0,14.0,64,-99.99,,,-99.99,,2013-02-14 22:42:00,
2013-02-14 16:52:00,32.0,21.0,-100.00,NNW,330,6.0,14.0,64,-99.99,,,-99.99,,2013-02-14 22:52:00,
2013-02-14 17:01:00,32.0,21.0,-100.00,NNW,330,6.0,14.0,64,-99.99,,,-99.99,,2013-02-14 23:01:00,
2013-02-14 17:11:00,32.0,21.0,-100.00,NNW,330,6.0,14.0,64,-99.99,,,-99.99,,2013-02-14 23:11:00,